• En España
  • Lista de países
  • Para 7 días
  • Temperatura del agua
  • Mapa Satelital
  • El tiempo en el mapa
  • Informadores
  • user-avatar
    Iniciar sesión

    Tiempo cada hora Cheremuhovo

    Hoy, 16 Agosto, Jueves

    Tiempo Temperatura Precipitaciones Viento Presión Humedad
    00:00 +13°C° 0 mm 1 mps 747 mmHg 88%
    01:00 +12°C° 0 mm 1 mps 747 mmHg 90%
    02:00 +12°C° 0 mm 1 mps 747 mmHg 90%
    03:00 +12°C° 0 mm 1 mps 747 mmHg 91%
    04:00 +11°C° 0 mm 1 mps 747 mmHg 90%
    05:00 +12°C° 0 mm 1 mps 747 mmHg 87%
    06:00 +14°C° 0 mm 1 mps 746 mmHg 83%
    07:00 +15°C° 0 mm 1 mps 746 mmHg 80%
    08:00 +15°C° 0,7 mm 2 mps 746 mmHg 83%
    09:00 +16°C° 0,7 mm 2 mps 745 mmHg 85%
    10:00 +16°C° 0 mm 3 mps 745 mmHg 88%
    11:00 +16°C° 3,1 mm 3 mps 744 mmHg 90%
    12:00 +16°C° 3,1 mm 3 mps 744 mmHg 93%
    13:00 +16°C° 3,1 mm 3 mps 743 mmHg 95%
    14:00 +16°C° 0,7 mm 3 mps 743 mmHg 95%
    15:00 +17°C° 0,7 mm 2 mps 743 mmHg 95%
    16:00 +18°C° 0 mm 2 mps 743 mmHg 94%
    17:00 +18°C° 0,5 mm 2 mps 742 mmHg 95%
    18:00 +18°C° 0,5 mm 2 mps 742 mmHg 95%
    19:00 +17°C° 0,5 mm 2 mps 742 mmHg 96%
    20:00 +16°C° 0,1 mm 3 mps 742 mmHg 96%
    21:00 +14°C° 0,1 mm 3 mps 743 mmHg 96%
    22:00 +13°C° 0,1 mm 3 mps 743 mmHg 97%
    23:00 +13°C° 0 mm 3 mps 743 mmHg 97%

    Mañana, 17 Agosto, Viernes

    Tiempo Temperatura Precipitaciones Viento Presión Humedad
    00:00 +12°C° 0 mm 3 mps 743 mmHg 96%
    01:00 +12°C° 0 mm 4 mps 744 mmHg 96%
    02:00 +11°C° 0 mm 4 mps 744 mmHg 96%
    03:00 +11°C° 0 mm 4 mps 745 mmHg 96%
    04:00 +10°C° 0 mm 4 mps 745 mmHg 96%
    05:00 +10°C° 0 mm 4 mps 746 mmHg 94%
    06:00 +10°C° 0 mm 4 mps 746 mmHg 92%
    07:00 +10°C° 0 mm 4 mps 747 mmHg 91%
    08:00 +12°C° 0 mm 4 mps 747 mmHg 80%
    09:00 +13°C° 0 mm 5 mps 747 mmHg 69%
    10:00 +15°C° 0 mm 5 mps 748 mmHg 58%
    11:00 +16°C° 0 mm 5 mps 748 mmHg 55%
    12:00 +16°C° 0 mm 5 mps 748 mmHg 51%
    13:00 +17°C° 0 mm 5 mps 748 mmHg 47%
    14:00 +18°C° 0 mm 4 mps 748 mmHg 49%
    15:00 +18°C° 0 mm 4 mps 748 mmHg 50%
    16:00 +18°C° 0 mm 4 mps 748 mmHg 51%
    17:00 +17°C° 0,1 mm 4 mps 748 mmHg 60%
    18:00 +14°C° 0,1 mm 3 mps 748 mmHg 68%
    19:00 +13°C° 0,1 mm 3 mps 749 mmHg 76%
    20:00 +13°C° 0 mm 2 mps 749 mmHg 82%
    21:00 +12°C° 0 mm 2 mps 749 mmHg 87%
    22:00 +9°C° 0 mm 2 mps 750 mmHg 93%
    23:00 +9°C° 0 mm 2 mps 750 mmHg 94%

    Pasado mañana, 18 Agosto, Sábado

    Tiempo Temperatura Precipitaciones Viento Presión Humedad
    00:00 +8°C° 0 mm 2 mps 750 mmHg 95%
    01:00 +8°C° 0 mm 2 mps 750 mmHg 96%
    02:00 +7°C° 0 mm 2 mps 750 mmHg 97%
    03:00 +7°C° 0 mm 2 mps 750 mmHg 97%
    04:00 +7°C° 0 mm 2 mps 751 mmHg 97%
    05:00 +7°C° 0 mm 2 mps 751 mmHg 94%
    06:00 +8°C° 0 mm 2 mps 751 mmHg 92%
    07:00 +9°C° 0 mm 3 mps 751 mmHg 89%
    08:00 +10°C° 0 mm 3 mps 751 mmHg 80%
    09:00 +12°C° 0 mm 3 mps 751 mmHg 72%
    10:00 +13°C° 0 mm 4 mps 751 mmHg 63%
    11:00 +14°C° 0,1 mm 4 mps 751 mmHg 61%
    12:00 +14°C° 0,1 mm 4 mps 751 mmHg 59%
    13:00 +14°C° 0,1 mm 4 mps 751 mmHg 57%
    14:00 +15°C° 0,1 mm 4 mps 751 mmHg 57%
    15:00 +15°C° 0,1 mm 4 mps 751 mmHg 58%
    16:00 +15°C° 0,1 mm 4 mps 751 mmHg 58%
    17:00 +14°C° 0 mm 3 mps 751 mmHg 63%
    18:00 +14°C° 0 mm 2 mps 752 mmHg 67%
    19:00 +13°C° 0 mm 2 mps 752 mmHg 72%
    20:00 +12°C° 0 mm 2 mps 752 mmHg 77%
    21:00 +10°C° 0 mm 2 mps 752 mmHg 82%
    22:00 +9°C° 0 mm 1 mps 753 mmHg 87%
    23:00 +9°C° 0 mm 1 mps 753 mmHg 89%

    19 Agosto, Domingo

    Tiempo Temperatura Precipitaciones Viento Presión Humedad
    00:00 +8°C° 0 mm 1 mps 753 mmHg 91%
    01:00 +8°C° 0 mm 1 mps 753 mmHg 93%
    02:00 +7°C° 0 mm 1 mps 753 mmHg 94%
    03:00 +7°C° 0 mm 1 mps 754 mmHg 94%
    04:00 +7°C° 0 mm 1 mps 754 mmHg 95%
    05:00 +8°C° 0 mm 1 mps 754 mmHg 91%
    06:00 +9°C° 0 mm 1 mps 754 mmHg 87%
    07:00 +10°C° 0 mm 1 mps 754 mmHg 82%
    08:00 +12°C° 0 mm 1 mps 754 mmHg 74%
    09:00 +14°C° 0 mm 1 mps 754 mmHg 65%
    10:00 +16°C° 0 mm 2 mps 754 mmHg 56%
    11:00 +17°C° 0 mm 2 mps 754 mmHg 52%
    12:00 +18°C° 0 mm 2 mps 753 mmHg 48%
    13:00 +19°C° 0 mm 2 mps 753 mmHg 45%
    14:00 +19°C° 0 mm 2 mps 753 mmHg 45%
    15:00 +19°C° 0 mm 2 mps 753 mmHg 45%
    16:00 +19°C° 0 mm 2 mps 753 mmHg 45%
    17:00 +19°C° 0 mm 1 mps 752 mmHg 52%
    18:00 +18°C° 0 mm 1 mps 752 mmHg 60%
    19:00 +15°C° 0 mm 1 mps 752 mmHg 67%
    20:00 +14°C° 0 mm 1 mps 752 mmHg 70%
    21:00 +13°C° 0 mm 1 mps 752 mmHg 73%
    22:00 +10°C° 0 mm 0 mps 752 mmHg 75%
    23:00 +11°C° 0 mm 1 mps 753 mmHg 76%

    20 Agosto, Lunes

    Tiempo Temperatura Precipitaciones Viento Presión Humedad
    00:00 +11°C° 0 mm 1 mps 753 mmHg 77%
    01:00 +10°C° 0 mm 1 mps 753 mmHg 79%
    02:00 +10°C° 0 mm 1 mps 753 mmHg 80%
    03:00 +10°C° 0 mm 1 mps 753 mmHg 81%
    04:00 +9°C° 0 mm 1 mps 753 mmHg 82%
    05:00 +11°C° 0 mm 1 mps 753 mmHg 80%
    06:00 +12°C° 0 mm 1 mps 753 mmHg 77%
    07:00 +13°C° 0 mm 1 mps 752 mmHg 74%
    08:00 +15°C° 0 mm 1 mps 752 mmHg 68%
    09:00 +18°C° 0 mm 1 mps 752 mmHg 63%
    10:00 +20°C° 0 mm 1 mps 752 mmHg 57%
    11:00 +21°C° 0 mm 1 mps 752 mmHg 55%
    12:00 +23°C° 0 mm 1 mps 751 mmHg 53%
    13:00 +24°C° 0 mm 1 mps 751 mmHg 51%
    14:00 +23°C° 0,1 mm 1 mps 751 mmHg 53%
    15:00 +23°C° 0,1 mm 1 mps 751 mmHg 55%
    16:00 +23°C° 0,1 mm 1 mps 751 mmHg 57%
    17:00 +22°C° 0,1 mm 1 mps 750 mmHg 65%
    18:00 +20°C° 0,1 mm 1 mps 750 mmHg 72%
    19:00 +19°C° 0,1 mm 1 mps 750 mmHg 80%
    20:00 +18°C° 0 mm 1 mps 750 mmHg 84%
    21:00 +16°C° 0 mm 1 mps 750 mmHg 87%
    22:00 +14°C° 0 mm 1 mps 750 mmHg 91%
    23:00 +14°C° 0 mm 1 mps 750 mmHg 92%

    21 Agosto, Martes

    Tiempo Temperatura Precipitaciones Viento Presión Humedad
    00:00 +14°C° 0 mm 1 mps 750 mmHg 93%
    01:00 +13°C° 0 mm 1 mps 750 mmHg 93%
    02:00 +13°C° 0 mm 1 mps 750 mmHg 94%
    03:00 +13°C° 0 mm 1 mps 750 mmHg 94%
    04:00 +12°C° 0 mm 1 mps 750 mmHg 95%
    05:00 +13°C° 0 mm 1 mps 750 mmHg 92%
    06:00 +14°C° 0 mm 1 mps 750 mmHg 89%
    07:00 +15°C° 0 mm 2 mps 750 mmHg 86%
    08:00 +17°C° 0 mm 2 mps 749 mmHg 78%
    09:00 +18°C° 0 mm 2 mps 749 mmHg 69%
    10:00 +20°C° 0 mm 3 mps 749 mmHg 61%
    11:00 +21°C° 0 mm 3 mps 749 mmHg 57%
    12:00 +22°C° 0 mm 3 mps 749 mmHg 53%
    13:00 +24°C° 0 mm 3 mps 749 mmHg 49%
    14:00 +24°C° 0 mm 3 mps 748 mmHg 52%
    15:00 +22°C° 0 mm 3 mps 748 mmHg 55%
    16:00 +22°C° 0 mm 3 mps 748 mmHg 58%
    17:00 +20°C° 0,1 mm 3 mps 748 mmHg 68%
    18:00 +19°C° 0,1 mm 2 mps 748 mmHg 78%
    19:00 +18°C° 0,1 mm 1 mps 748 mmHg 88%
    20:00 +16°C° 0 mm 1 mps 748 mmHg 90%
    21:00 +16°C° 0 mm 1 mps 747 mmHg 92%
    22:00 +15°C° 0 mm 1 mps 747 mmHg 94%
    23:00 +15°C° 0,1 mm 1 mps 747 mmHg 95%
    Mostrar más